Flag for USA

Past Weather in 40°17'24.2"N, 75°25'26.5"W, USA — Yesterday and Last 2 Weeks

Currently: 55 °F. Light rain. Fog. (Weather station: Philadelphia International Airport, USA). See more current weather

Past Weather in 40°17'24.2"N, 75°25'26.5"W — Graph

°F

40°17'24.2"N, 75°25'26.5"W Temperature Yesterday

Maximum temperature yesterday: 48 °F (at 2:54 pm)
Minimum temperature yesterday: 36 °F (at 4:54 am)
Average temperature yesterday: 42 °F

High & Low Weather Summary for the Past Weeks

 TemperatureHumidityPressure
High62 °F (Nov 27, 8:04 pm)97% (Nov 16, 1:54 am)30.53 "Hg (Nov 16, 1:54 am)
Low27 °F (Nov 20, 10:54 pm)27% (Nov 20, 1:54 pm)29.42 "Hg (Nov 27, 6:01 pm)
Average44 °F63%30.10 "Hg
* Reported Nov 15 10:54 am — Nov 30 10:27 am, 40°17'24.2"N, 75°25'26.5"W. Weather by CustomWeather, © 2022

Note: Actual official high and low records may vary slightly from our data, if they occured in-between our weather recording intervals... More about our weather records

40°17'24.2"N, 75°25'26.5"W Weather History for the Previous 24 Hours

Scroll right to see more
 ConditionsComfort  
Time TempWeatherWind HumidityBarometerVisibility
10:27 am
Wed, Nov 30
50 °FLight rain. Fog.7 mph93%29.93 "Hg4 mi
10:16 am50 °FRain. Fog.7 mph96%29.94 "Hg3 mi
9:54 am49 °FRain. Fog.No wind97%29.95 "Hg3 mi
9:15 am50 °FLight rain. Fog.7 mph86%29.98 "Hg2 mi
9:08 am50 °FLight rain. Fog.5 mph86%29.99 "Hg4 mi
7:54 am47 °FOvercast.6 mph83%30.02 "Hg10 mi
6:54 am44 °FOvercast.5 mph79%30.05 "Hg10 mi
5:54 am43 °FMostly cloudy.3 mph79%30.09 "Hg10 mi
4:54 am43 °FMostly cloudy.6 mph76%30.11 "Hg10 mi
3:54 am41 °FMostly cloudy.3 mph80%30.13 "Hg10 mi
2:54 am41 °FMostly cloudy.5 mph80%30.17 "Hg10 mi
1:54 am40 °FOvercast.3 mph77%30.19 "Hg10 mi
12:54 am39 °FOvercast.6 mph79%30.20 "Hg10 mi
11:54 pm
Tue, Nov 29
39 °FOvercast.5 mph76%30.24 "Hg10 mi
10:54 pm40 °FHigh level clouds.No wind73%30.26 "Hg10 mi
9:54 pm39 °FHigh level clouds.5 mph76%30.26 "Hg10 mi
8:54 pm40 °FPassing clouds.5 mph73%30.27 "Hg10 mi
7:54 pm41 °FPassing clouds.3 mph70%30.29 "Hg10 mi
5:54 pm43 °FPassing clouds.3 mph65%30.27 "Hg10 mi
4:54 pm45 °FPassing clouds.5 mph60%30.26 "Hg10 mi
3:54 pm46 °FPartly sunny.3 mph56%30.26 "Hg10 mi
2:54 pm48 °FPartly sunny.3 mph52%30.27 "Hg10 mi
1:54 pm47 °FPartly sunny.No wind54%30.27 "Hg10 mi
12:54 pm47 °FPartly sunny.5 mph52%30.27 "Hg10 mi
11:54 am46 °FPartly sunny.5 mph56%30.30 "Hg10 mi
Weather by CustomWeather, © 2022

See weather overview